Погода в Тавтимановом

Россия / Республика Башкортостан     54˚53′15″N   56˚38′41″E
темп.,
°C
ветер,
м/с
пор.,
м/с
влажн.,
%
обл.,
%
осадки,
мм/ч
давл.,
гПа
погр.,
м
18 января, пн
пн1823:00−18˚юз3797100 0.4 1015226
02:00−20˚ююз3598100 0.1 1017170
05:00−22˚ю2299100 0.1 102031
08:00−24˚ююв11100100 0.0 102120
11:00−23˚вюв119896 0.1 102236
14:00−18˚всв118967 0.0 1021222
17:00−21˚с129752 0.0 102120
20:00−21˚ссв129668 0.0 102120
19 января, вт
вт1923:00−21˚всв119384 0.0 102020
02:00−19˚св2290100 0.0 101961
05:00−16˚ссв1388100 0.0 1018112
08:00−14˚св2591100 0.1 1016205
11:00−13˚всв2595100 1.3 1014203
14:00−10˚в2493100 0.5 1012197
17:00−9˚всв1194100 0.5 101142
20:00−10˚в1297100 0.6 101148
20 января, ср
ср2023:00−9˚ю3795100 1.5 1011415
02:00−11˚ю2596100 0.7 1010184
05:00−11˚ююз4994100 1.5 1011516
08:00−13˚ююз4894100 0.4 1011402
11:00−15˚ююз4794100 0.6 1012443
14:00−16˚ююз5992100 0.3 1013552
17:00−18˚ююз51094100 0.4 1013547
20:00−19˚ююз51195100 0.2 1014589
21 января, чт
чт2123:00−20˚ююз51095100 0.4 1015572
02:00−20˚ююз51096100 0.2 1015498
05:00−20˚ююз4996100 0.5 1016418
08:00−20˚ююз4997100 0.3 1017350
11:00−19˚юз3696100 0.6 1018392
14:00−17˚юз4794100 0.3 1018477
17:00−17˚ююз4895100 0.5 1018468
20:00−17˚ююз4995100 0.4 1019415
22 января, пт
пт2223:00−17˚ююз4996100 0.8 1019362
02:00−17˚ююз51095100 0.4 1018405
05:00−17˚ю61295100 1.0 1015471
08:00−16˚ю71595100 1.6 1011593
11:00−13˚юз71393100 4.6 10081035
14:00−11˚юз61194100 2.4 1008813
17:00−10˚юз51094100 4.2 1008623
20:00−11˚ююз3995100 0.3 1009328